Simultaneous Nadir Overpasses (SNOs) Predictions

Prediction of SNOs near US between AQUA and NPP Satellite Orbit:

Table of predicted SNOs near US for the next 10.0 days since TLE Epoch: 10/23/2016
Index Date (AQUA) Time (AQUA) AQUA Lat,Lon Date (NPP) Time (NPP) NPP Lat,Lon Distance(km) Time Diff (sec)
1 10/23/2016 06:29:51 46.40, -65.03 10/23/2016 06:31:06 46.78, -67.06 161.31 75
2 10/23/2016 08:07:45 49.91, -88.35 10/23/2016 08:11:33 50.41, -90.89 189.10 228
3 10/23/2016 09:46:38 49.92,-113.07 10/23/2016 09:53:01 50.52,-116.22 233.51 383
4 10/25/2016 19:05:56 49.98, -92.55 10/25/2016 19:01:51 49.67, -94.43 138.76 245
5 10/25/2016 20:44:49 49.97,-117.27 10/25/2016 20:43:19 49.56,-119.75 184.06 90
6 10/28/2016 08:34:22 21.02,-101.66 10/28/2016 08:26:19 21.05,-101.85 19.68 483
7 10/28/2016 10:10:44 30.12,-124.14 10/28/2016 10:05:12 30.24,-124.83 68.29 332
8 10/31/2016 07:18:22 49.90, -76.01 10/31/2016 07:20:51 50.34, -78.26 167.71 149
9 10/31/2016 08:57:15 49.90,-100.73 10/31/2016 09:02:19 50.45,-103.58 212.20 304




NCC Satellite Simultaneous Nadir Overpasses (SNOs) Prediction Service
